Location: Roc des P�zouls
(43.9667°N, 3.5500°E)
Time: 05:27:48
(UTC+00:00)

Cosmos 2123 Rocket - Pass Details

Date: 14 November 2019
Orbit: 961 x 992 km, 82.9° (Epoch: 05 December)

Event Time Altitude Azimuth Distance (km) Brightness Sun altitude
Rises 03:45:01 0° 352° (N) 3,656 7.0 -31.3°
Reaches altitude 10° 03:47:31 10° 354° (N) 2,706 6.3 -30.8°
Enters shadow 03:48:37 16° 354° (N) 2,301 5.9 -30.6°
Exits shadow 03:50:30 31° 357° (N) 1,642 5.1 -30.3°
Maximum altitude 03:53:44 82° 82° (E) 979 3.9 -29.7°
Drops below altitude 10° 03:59:56 10° 170° (S) 2,702 6.4 -28.6°
Sets 04:02:26 0° 172° (S) 3,649 7.1 -28.1°
